CZ-4 DEB

Satellite information

Favourite Embed

Satellite Type and Status

DEBRISIN ORBIT

Key statistics

Satellite CZ-4 DEB at a glance.

Uptime

12886

Days in orbit

Revolutions

≈ 14.2

Per day

Orbit

SSO

Sun Synchronous Orbit

Inclination

98.8

Latest

Satellite identification and parameters

Extended collection of information and parameters for CZ-4 DEB.

Object identification

Identified? True

Debris? True

Object name: CZ-4 DEB

International designator: 1990-081F

Object number (NORAD): 20793

Object ID (CCSDS): 20793

Country: PEOPLES REPUBLIC OF CHINA (PRC)

Current information (Y/N): Y

RCS size: SMALL

Orbital parameters

Period: 101.367 minutes

Inclination: 98.7582 deg

SMA: 7201.549 km

Apoapsis: 837.554 km

Periapsis: 809.274 km

RAAN: 330.6448 deg

Eccentricy: 0.00196347

Argument of periapsis: 155.45 deg

Mean anomaly: 216.0905 deg

Mean motion: 14.20574102 rev/day

Mean motion (dot): 0.00001553 rev/day2

B* drag term: 0.00074108667 1/REarth

Two-line elements (TLE)

Creation date: Dec. 12, 2025, 10:14 a.m.

Reference frame: TEME

Reference center: EARTH

Epoch: Dec. 12, 2025, 4:34 a.m. UTC

TLE line 0: 0 CZ-4 DEB

TLE line 1: 1 20793U 90081F 25346.19059044 .00001553 00000-0 74109-3 0 9999

TLE line 2: 2 20793 98.7582 330.6448 0019635 155.4500 216.0905 14.20574102816930

Live tracking on map

Real-time ground track for satellite CZ-4 DEB.

In-orbit conjunctions

A list of the most updated potential collisions computed for object CZ-4 DEB.

Target Orbit TCA Probability of collision Miss distance Type
FENGYUN 1C DEB SSO 2025-06-25 15:20:46 0.0004059259 148.0 (m) DEBRIS
BLITS SSO 2025-06-12 13:41:24 0.0001783481 537.0 (m) PAYLOAD
FENGYUN 1C DEB SSO 2025-03-20 04:33:37 0.0001342918 168.0 (m) DEBRIS
FENGYUN 1C DEB SSO 2025-03-05 19:31:10 0.0001139455 101.0 (m) DEBRIS
FENGYUN 1C DEB SSO 2024-10-26 11:28:27 0.0001015089 305.0 (m) DEBRIS

Associated space launch

Chinese polar orbiting meteorological satellite

CZ-4 DEB was lifted into orbit during the mission ‘Long March 4A | Feng Yun 1B’, on board a Long March 4A space rocket.

The launch took place on Sept. 3, 1990, 12:53 a.m. from Launch Complex 7.

For more information about the launch, click the button.

Launch to space Long March 4A | Feng Yun 1B
Long March 4A | Feng Yun 1B

Agency: N/A

Status: Launch Successful

Launch date: Sept. 3, 1990, 12:53 a.m. UTC

Rocket: Long March 4A

Launch pad: Launch Complex 7

Location: Taiyuan Satellite Launch Center, People's Republic of China

...

Latest news about this satellite

There are no fresh news available about this satellite. Check back as we update our databases every day.


Newsletter sign-up

Weekly statistics, charts and insights to help you stay on top of the space industry.